Location: Chisholm
(54.9102°N, 114.1701°W)
Time: 10:47:39
(UTC+00:00)

N. Korean satellite - Pass Details

Date: 05 December 2021
Orbit: 447 x 491 km, 97.3° (Epoch: 24 January)

Event Time Altitude Azimuth Distance (km) Brightness Sun altitude
Rises 12:12:08 0° 24° (NNE) 2,474 10.5 -28.9°
Reaches altitude 10° 12:14:31 10° 40° (NE) 1,591 9.6 -28.6°
Maximum altitude 12:17:14 22° 93° (E) 1,038 8.9 -28.2°
Drops below altitude 10° 12:19:56 10° 146° (SE) 1,575 9.5 -27.8°
Sets 12:22:16 0° 162° (SSE) 2,442 10.4 -27.5°
